[[{"header":{"parameterUnit":"m.s-1","parameterCategory":1,"la1":30.2991,"la2":30.254,"lo1":-89.0895,"lo2":-89.0444,"dy":0.0017,"dx":0.0017,"nx":28,"ny":28,"refTime":"2023-10-12T03:00:00:Z","depth":0,"parameterNumber":2,"parameterNumberName":"U-component_of_WINDS"},"data":[0,0,0,0,0,0,0,0,0,0,0,0,0,0,0,0,0,0,0,0,0,0,0,0,0,0,0,0,0,0,0,0,0,0,0,0,0,0,0,0,0,0,0,0,0,0,0,0,0,0,0,0,0,0,0,0,0,0,-2.3439,-2.3439,0,-2.3481,-2.3482,-2.3482,-2.3442,-2.344,-2.3439,-2.3437,-2.348,-2.3483,-2.3486,0,0,0,0,0,0,0,0,0,0,0,0,0,-2.3323,-2.3325,-2.3439,-2.3439,-2.344,-2.3481,-2.3482,-2.3482,-2.3442,-2.344,-2.3438,-2.3436,-2.348,-2.3483,-2.3486,0,0,0,0,0,0,0,0,0,0,0,0,0,-2.337,-2.3326,-2.3439,-2.3425,-2.3424,-2.3481,-2.3482,-2.3482,-2.3443,-2.344,-2.3438,-2.3435,-2.3479,-2.3482,-2.3486,-2.3559,0,0,-2.3498,-2.35,0,0,0,0,0,0,0,0,-2.3367,-2.3374,-2.3426,-2.3426,-2.3425,-2.3454,-2.3457,-2.3508,-2.3443,-2.3436,-2.3437,-2.3434,-2.3474,-2.3478,-2.3491,-2.3561,-2.3563,-2.3499,-2.3501,-2.3503,-2.3504,0,0,0,0,0,0,0,-2.3364,-2.3372,-2.3456,-2.3427,-2.3426,-2.3416,-2.342,-2.3466,-2.3468,-2.3436,-2.3433,-2.3439,-2.3473,-2.3487,-2.3492,-2.3564,-2.3499,-2.3502,-2.3505,-2.3506,-2.3696,-2.3698,0,0,0,0,0,0,-2.3362,-2.337,-2.3454,-2.3457,-2.339,-2.342,-2.3425,-2.3447,-2.3467,-2.3468,-2.3441,-2.3437,-2.3482,-2.3487,-2.3493,-2.3579,-2.3503,-2.3507,-2.3509,-2.3693,-2.3696,-2.3699,0,0,0,0,0,0,-2.336,-2.337,-2.3452,-2.3413,-2.3422,-2.3425,-2.345,-2.3449,-2.3464,-2.3471,-2.347,-2.3455,-2.348,-2.3487,-2.3543,-2.358,-2.3508,-2.3512,-2.369,-2.3694,-2.3698,-2.3753,0,0,0,0,0,0,-2.3357,-2.337,-2.3398,-2.3414,-2.3425,-2.3502,-2.3452,-2.3452,-2.3471,-2.3466,-2.3484,-2.3485,-2.3479,-2.3537,-2.3547,-2.3585,-2.3515,-2.3686,-2.3692,-2.3696,-2.3748,-2.3758,-2.3767,0,0,0,0,0,-2.3353,-2.3412,-2.3399,-2.341,-2.3459,-2.3504,-2.351,-2.3502,-2.3474,-2.3502,-2.3506,-2.3484,-2.3575,-2.3543,-2.3554,-2.3593,-2.3684,-2.369,-2.3696,-2.3743,-2.3756,-2.3767,0,0,0,0,0,0,-2.34,-2.3413,-2.34,-2.3465,-2.3484,-2.3497,-2.3532,-2.3516,-2.3543,-2.3537,-2.3525,-2.353,-2.3589,-2.3596,-2.3561,-2.3665,-2.3625,-2.3633,-2.3657,-2.367,-2.3679,-2.3676,-2.3518,0,0,0,0,0,-2.3418,-2.3453,-2.3463,-2.352,-2.353,-2.353,-2.3549,-2.3541,-2.3559,-2.3567,-2.3575,-2.3595,-2.3627,-2.3649,-2.3679,-2.3749,-2.3752,-2.3781,-2.3791,-2.3799,-2.3806,-2.3843,-2.3856,-2.3718,-2.3718,-2.3718,0,0,-2.3455,-2.3467,-2.349,-2.353,-2.3543,-2.358,-2.3536,-2.3577,-2.3604,-2.3573,-2.3626,-2.3633,-2.3653,-2.3716,-2.3744,-2.3725,-2.3845,-2.3806,-2.3813,-2.3816,-2.3851,-2.3864,-2.3875,-2.3722,-2.3722,-2.3721,0,0,-2.3542,-2.3555,-2.3603,-2.3618,-2.3639,-2.3638,-2.365,-2.3666,-2.3669,-2.3722,-2.37,-2.3732,-2.3788,-2.3803,-2.3819,-2.3912,-2.3893,-2.3922,-2.3973,-2.4009,-2.402,-2.4029,-2.4062,-2.4074,-2.3929,-2.3929,-2.3929,0,-2.3586,-2.3641,-2.3631,-2.3673,-2.3691,-2.3665,-2.3714,-2.3728,-2.3758,-2.3771,-2.3748,-2.3818,-2.383,-2.3896,-2.3919,-2.3932,-2.3945,-2.392,-2.4019,-2.4029,-2.4037,-2.4069,-2.4081,-2.3933,-2.3932,-2.3932,-2.3932,0,-2.3694,-2.3732,-2.3768,-2.3798,-2.382,-2.3866,-2.3862,-2.3886,-2.3876,-2.3878,-2.3932,-2.3945,-2.3978,-2.3993,-2.3983,-2.4057,-2.4044,-2.4021,-2.3981,-2.4054,-2.4083,-2.4095,-2.3937,-2.3936,-2.3935,-2.3934,0,0,-2.3811,-2.3834,-2.3848,-2.3861,-2.3882,-2.3911,-2.3956,-2.3988,-2.4008,-2.4029,-2.4066,-2.4114,-2.4093,-2.411,-2.4102,-2.4134,-2.4207,-2.4107,-2.4107,-2.4124,-2.4289,-2.4306,-2.432,-2.4194,-2.4196,-2.4198,-2.4287,0,-2.3899,-2.3975,-2.3968,-2.4041,-2.4076,-2.4051,-2.409,-2.4107,-2.411,-2.414,-2.4143,-2.4177,-2.4146,-2.4156,-2.4187,-2.4191,-2.4239,-2.4185,-2.4228,-2.423,-2.4223,-2.4335,-2.4354,-2.4437,-2.4298,-2.43,-2.4301,0,-2.4011,-2.4036,-2.4113,-2.4129,-2.4143,-2.4178,-2.4206,-2.4235,-2.4254,-2.4254,-2.4273,-2.426,-2.4304,-2.4263,-2.4324,-2.4287,-2.4304,-2.4309,-2.4312,-2.4316,-2.427,-2.4341,-2.4463,-2.4475,-2.4319,-2.4318,-2.4317,0,-2.4088,-2.4142,-2.4195,-2.4207,-2.4226,-2.4251,-2.4261,-2.4277,-2.4297,-2.4322,-2.4334,-2.4364,-2.438,-2.4403,-2.4398,-2.4369,-2.446,-2.4419,-2.4461,-2.4461,-2.4481,-2.448,-2.4607,-2.4493,-2.4493,-2.4493,-2.4492,0,-2.4187,-2.4235,-2.423,-2.4262,-2.4315,-2.4306,-2.4358,-2.4364,-2.4379,-2.4412,-2.4393,-2.4424,-2.4416,-2.4447,-2.4443,-2.4494,-2.4501,-2.4502,-2.45,-2.4504,-2.4504,-2.4514,-2.4508,-2.4496,-2.4495,-2.4494,-2.4494,0,-2.4282,-2.4281,-2.4337,-2.4351,-2.4356,-2.4394,-2.4406,-2.4436,-2.4438,-2.448,-2.4489,-2.4491,-2.4527,-2.4524,-2.4564,-2.4561,-2.4624,-2.4616,-2.4618,-2.4616,-2.4658,-2.4654,-2.4796,-2.4814,-2.4689,-2.469,-2.4691,0,-2.4345,-2.4381,-2.4399,-2.442,-2.4431,-2.4465,-2.4485,-2.4477,-2.4498,-2.4522,-2.455,-2.4584,-2.461,-2.4668,-2.4673,-2.4703,-2.4695,-2.4743,-2.47,-2.4702,-2.4696,-2.4693,-2.4697,-2.4752,-2.4753,-2.4754,-2.4755,0,-2.4456,-2.4454,-2.4483,-2.4513,-2.4537,-2.456,-2.458,-2.4598,-2.4593,-2.4618,-2.4654,-2.4674,-2.4715,-2.4749,-2.4778,-2.4787,-2.477,-2.4769,-2.478,-2.4783,-2.4783,-2.4783,-2.464,-2.4765,-2.4764,-2.4764,-2.4763,-2.4763,-2.4537,-2.4568,-2.4585,-2.4619,-2.4633,-2.4653,-2.4682,-2.4687,-2.4717,-2.475,-2.4743,-2.4784,-2.4802,-2.4839,-2.4851,-2.4882,-2.4865,-2.4882,-2.4886,-2.489,-2.4894,-2.4778,-2.4888,-2.4887,-2.4887,-2.4887,-2.4887,0,-2.4647,-2.4657,-2.4687,-2.4717,-2.4743,-2.4725,-2.4747,-2.477,-2.4806,-2.4824,-2.4851,-2.4892,-2.4925,-2.4932,-2.4963,-2.4987,-2.498,-2.4995,-2.4993,-2.4996,-2.4908,-2.4895,-2.5,-2.5,-2.5,-2.5,-2.5,-2.5,-2.4707,-2.4758,-2.4758,-2.4816,-2.4826,-2.4865,-2.4879,-2.4897,-2.4912,-2.4959,-2.4986,-2.499,-2.5004,-2.5036,-2.5065,-2.5066,-2.5078,-2.5097,-2.5095,-2.5013,-2.5002,-2.4991,-2.4979,-2.51,-2.51,-2.518,-2.518,-2.5181]},{"header":{"parameterUnit":"m.s-1","parameterCategory":1,"la1":30.2991,"la2":30.254,"lo1":-89.0895,"lo2":-89.0444,"dy":0.0017,"dx":0.0017,"nx":28,"ny":28,"refTime":"2023-10-12T03:00:00:Z","depth":0,"parameterNumber":3,"parameterNumberName":"V-component_of_WINDS"},"data":[0,0,0,0,0,0,0,0,0,0,0,0,0,0,0,0,0,0,0,0,0,0,0,0,0,0,0,0,0,0,0,0,0,0,0,0,0,0,0,0,0,0,0,0,0,0,0,0,0,0,0,0,0,0,0,0,0,0,-4.8103,-4.8103,0,-4.8157,-4.8157,-4.8158,-4.8105,-4.8103,-4.8101,-4.8099,-4.8149,-4.8152,-4.8156,0,0,0,0,0,0,0,0,0,0,0,0,0,-4.795,-4.7953,-4.8103,-4.8103,-4.8104,-4.8157,-4.8157,-4.8158,-4.8105,-4.8103,-4.81,-4.8098,-4.8148,-4.8152,-4.8156,0,0,0,0,0,0,0,0,0,0,0,0,0,-4.8011,-4.7954,-4.8103,-4.8084,-4.8083,-4.8156,-4.8157,-4.8158,-4.8106,-4.8102,-4.8099,-4.8096,-4.8147,-4.8152,-4.8157,-4.825,0,0,-4.8172,-4.8174,0,0,0,0,0,0,0,0,-4.8007,-4.8017,-4.8086,-4.8086,-4.8084,-4.8121,-4.8122,-4.8189,-4.8106,-4.8097,-4.8098,-4.8095,-4.8142,-4.8147,-4.8164,-4.8252,-4.8254,-4.8172,-4.8175,-4.8177,-4.8179,0,0,0,0,0,0,0,-4.8003,-4.8014,-4.8124,-4.8087,-4.8086,-4.8072,-4.8077,-4.8134,-4.8136,-4.8097,-4.8094,-4.8101,-4.8141,-4.8159,-4.8165,-4.8255,-4.8172,-4.8176,-4.8179,-4.8181,-4.8421,-4.8424,0,0,0,0,0,0,-4.8002,-4.8011,-4.8122,-4.8126,-4.8038,-4.8077,-4.8083,-4.8112,-4.8135,-4.8136,-4.8104,-4.8098,-4.8152,-4.8159,-4.8166,-4.8276,-4.8177,-4.8182,-4.8185,-4.8417,-4.8421,-4.8425,0,0,0,0,0,0,-4.7999,-4.8012,-4.812,-4.8067,-4.808,-4.8083,-4.8116,-4.8115,-4.8133,-4.814,-4.814,-4.8123,-4.815,-4.8159,-4.8229,-4.8277,-4.8184,-4.8189,-4.8413,-4.8419,-4.8423,-4.8497,0,0,0,0,0,0,-4.7994,-4.8011,-4.8048,-4.8069,-4.8083,-4.8184,-4.8119,-4.8118,-4.8143,-4.8136,-4.8158,-4.8158,-4.8149,-4.8222,-4.8234,-4.8282,-4.8192,-4.8409,-4.8416,-4.8422,-4.849,-4.8504,-4.8516,0,0,0,0,0,-4.7989,-4.8066,-4.805,-4.8064,-4.8129,-4.8187,-4.8195,-4.8183,-4.8147,-4.8183,-4.8187,-4.8158,-4.827,-4.823,-4.8243,-4.8293,-4.8406,-4.8414,-4.8421,-4.8485,-4.8501,-4.8515,0,0,0,0,0,0,-4.8049,-4.8068,-4.8051,-4.8137,-4.8161,-4.8178,-4.8223,-4.8201,-4.8235,-4.8227,-4.821,-4.8216,-4.829,-4.8298,-4.8253,-4.8384,-4.8332,-4.8342,-4.8376,-4.8392,-4.8404,-4.84,-4.8196,0,0,0,0,0,-4.8072,-4.8119,-4.8133,-4.8207,-4.822,-4.822,-4.8244,-4.8234,-4.8257,-4.8266,-4.8276,-4.8298,-4.8339,-4.8366,-4.8403,-4.8491,-4.8495,-4.8532,-4.8545,-4.8555,-4.8565,-4.8611,-4.8628,-4.845,-4.845,-4.845,0,0,-4.8121,-4.8137,-4.8167,-4.822,-4.8237,-4.8284,-4.8228,-4.8281,-4.8316,-4.8274,-4.8341,-4.8349,-4.8372,-4.8452,-4.8487,-4.8461,-4.8614,-4.8565,-4.8573,-4.8577,-4.8621,-4.8637,-4.8652,-4.8455,-4.8454,-4.8454,0,0,-4.8233,-4.8251,-4.8314,-4.8333,-4.8361,-4.836,-4.8375,-4.8396,-4.8399,-4.8467,-4.8436,-4.8476,-4.8547,-4.8565,-4.8583,-4.8703,-4.8677,-4.8715,-4.8781,-4.8827,-4.8841,-4.8853,-4.8895,-4.8911,-4.8725,-4.8725,-4.8725,0,-4.8289,-4.8361,-4.8349,-4.8405,-4.8428,-4.8394,-4.8457,-4.8475,-4.8513,-4.8529,-4.85,-4.8587,-4.8601,-4.8684,-4.8713,-4.873,-4.8746,-4.8713,-4.884,-4.8852,-4.8864,-4.8903,-4.8919,-4.8729,-4.8729,-4.8728,-4.8728,0,-4.8429,-4.8479,-4.8527,-4.8566,-4.8594,-4.8653,-4.8649,-4.8679,-4.8666,-4.8668,-4.8736,-4.8751,-4.8791,-4.881,-4.8797,-4.8891,-4.8874,-4.8843,-4.879,-4.8885,-4.8922,-4.8937,-4.8736,-4.8734,-4.8733,-4.8732,0,0,-4.858,-4.8612,-4.863,-4.8647,-4.8675,-4.8712,-4.8769,-4.881,-4.8836,-4.8863,-4.8909,-4.8969,-4.8941,-4.8962,-4.895,-4.8991,-4.9083,-4.8954,-4.8954,-4.8977,-4.9187,-4.921,-4.9228,-4.9067,-4.9069,-4.9072,-4.9185,0,-4.8692,-4.8793,-4.8784,-4.8879,-4.8924,-4.8893,-4.8942,-4.8964,-4.8967,-4.9005,-4.9007,-4.905,-4.9009,-4.9022,-4.906,-4.9064,-4.9125,-4.9056,-4.9108,-4.911,-4.9103,-4.9247,-4.9272,-4.9378,-4.9199,-4.9202,-4.9203,0,-4.8838,-4.8871,-4.8971,-4.8992,-4.9011,-4.9056,-4.9092,-4.9129,-4.9152,-4.9151,-4.9176,-4.9157,-4.9213,-4.916,-4.9235,-4.9188,-4.9209,-4.9214,-4.9218,-4.9222,-4.9162,-4.9254,-4.9411,-4.9427,-4.9226,-4.9224,-4.9223,0,-4.8937,-4.9007,-4.9076,-4.9092,-4.9118,-4.915,-4.9162,-4.9183,-4.9207,-4.9238,-4.9254,-4.9291,-4.9311,-4.9339,-4.933,-4.9293,-4.9408,-4.9354,-4.9408,-4.9408,-4.9433,-4.9431,-4.9595,-4.9447,-4.9447,-4.9447,-4.9447,0,-4.9064,-4.9126,-4.9121,-4.9164,-4.9232,-4.922,-4.9287,-4.9295,-4.9314,-4.9356,-4.933,-4.9369,-4.9356,-4.9395,-4.9388,-4.9451,-4.9461,-4.9461,-4.9458,-4.9463,-4.9463,-4.9476,-4.9468,-4.9451,-4.945,-4.9449,-4.9449,0,-4.9186,-4.9186,-4.9259,-4.9278,-4.9284,-4.9334,-4.9349,-4.9388,-4.9389,-4.9443,-4.9454,-4.9456,-4.95,-4.9494,-4.9543,-4.9539,-4.9617,-4.9606,-4.961,-4.9607,-4.9661,-4.9656,-4.9838,-4.9861,-4.9699,-4.9701,-4.9702,0,-4.9267,-4.9314,-4.9339,-4.9366,-4.9381,-4.9425,-4.945,-4.944,-4.9467,-4.9498,-4.9533,-4.9575,-4.9608,-4.9679,-4.9684,-4.972,-4.9709,-4.9771,-4.9715,-4.9718,-4.971,-4.9707,-4.9711,-4.9782,-4.9783,-4.9785,-4.9786,0,-4.941,-4.9408,-4.9446,-4.9485,-4.9517,-4.9547,-4.9573,-4.9597,-4.9589,-4.9621,-4.9666,-4.9692,-4.9742,-4.9784,-4.9819,-4.9829,-4.9806,-4.9804,-4.9818,-4.9823,-4.9823,-4.9823,-4.9639,-4.98,-4.9798,-4.9797,-4.9797,-4.9796,-4.9513,-4.9554,-4.9578,-4.9622,-4.9641,-4.9667,-4.9705,-4.9711,-4.9749,-4.9791,-4.9782,-4.9833,-4.9854,-4.9899,-4.9913,-4.9952,-4.9929,-4.995,-4.9955,-4.996,-4.9966,-4.9818,-4.9958,-4.9957,-4.9957,-4.9957,-4.9956,0,-4.9655,-4.9669,-4.9709,-4.9748,-4.9783,-4.976,-4.9788,-4.9818,-4.9864,-4.9886,-4.992,-4.9971,-5.0012,-5.002,-5.0057,-5.0087,-5.0077,-5.0097,-5.0094,-5.0097,-4.9985,-4.9968,-5.0104,-5.0104,-5.0104,-5.0104,-5.0104,-5.0104,-4.9732,-4.9799,-4.98,-4.9876,-4.9888,-4.994,-4.9958,-4.9981,-4.9999,-5.0059,-5.0092,-5.0098,-5.0114,-5.0153,-5.0188,-5.0189,-5.0204,-5.0228,-5.0225,-5.012,-5.0105,-5.0091,-5.0076,-5.0232,-5.0232,-5.0334,-5.0335,-5.0336]}]]